DMSP 5D-2 F6 DEB, 40914

Orbit data source: Space-Track

DMSP 5D-2 F6 DEB, 40914 is space debris in SSO originally from a launch on Tue, 21 Dec 1982 UTC launched from the Air Force Western Test Range (AFWTR). Debris objects in space refer to the collection of defunct objects orbiting the Earth. Examples of debris include non-operational satellites, rocket bodies, and fragments generated from explosions, collisions, or faulty payload assembly.

Loading next visibility...
Identifier
40914, 1982-118G
Orbit
SSO
Last TLE update
9 months ago
Origin
Manufacturer
Unknown
Mission
Spacecraft
Bus & Motor
Unknown
Mass
Unknown
Launch date (UTC)
1982-12-21 (43 years ago)
Launch vehicle
Unknown
Launch site
Air Force Western Test Range (AFWTR)
Object type
Payload
Rocket body
Debris
Shape & HBR
Unknown
Radar Cross Section
Small (<0.1 m²)

Expand to show TLE details & history

TLE from 9 months ago
0 DMSP 5D-2 F6 DEB
1 40914U 82118G   24282.37058455  .00074353  00000-0  14149-1 0  9995
2 40914  98.4292 132.6962 0014371  28.3007 331.8972 14.63597326444381
Epoch: 2024-10-08T08:53Z
TLE epoch observation values (Epoch: 2024-10-08T08:53:38.505Z)
Latitude
-0.00002°
Longitude
-18.19904°
Altitude
675.617 km
Speed
7.524 km/s
True Right ascension
08h 50m 47s
True Declination
0° 00' 00"
Sunlit
Object was in daylight at epoch
Visualization orbit readout
Latitude
-21.06443°
Longitude
-90.5652°
Altitude
450.031 km
Speed
7.642 km/s
Apparent Right ascension
02h 39m 41s
Apparent Declination
-32° 11' 49"
Sunlit
Object is in full shadow
Visualization observer readout
Local Sidereal Time
12:51:46
Azimuth
281.085° WNW
Elevation
-66.969°
Doppler factor
1
Orbital elements
Apogee altitude
688.811 km
Perigee altitude
668.528 km
Semi-major axis
7,056.806 km
Eccentricity
0.00144
Inclination
98.4292°
RAAN
132.6962°
Arg. of periapsis
28.3007°
True anomaly
Unknown
Mean anomaly
331.8972°
Eccentric anomaly
Unknown
Mean motion
3.66126 °/min
Orbital period
98.33 mins
BSTAR
0.014149
Loading maneuver chart data...
Loading SW <> Apogee altitude chart data...
Loading historical data...
Loading historical data...
Loading historical data...
Loading historical data...
Loading historical data...
Loading historical data...
Loading historical data...

DMSP 5D-2 F6 DEB Visibility forecast

Observer location: undefined°, undefined°

Span
Click to sort rows by Start time (UTC) header in descending order
Start Az.
Max El. time (UTC)
Max El. Az.
Max El.
End time (UTC)
End Az.
5 mins2025-07-05 04:45:06.483Z353.408° N2025-07-05 04:48:06.483Z265.592° W30.965°2025-07-05 04:50:06.483Z222.393° SW
5 mins2025-07-05 15:15:06.483Z148.633° SSE2025-07-05 15:17:06.483Z54.318° ENE41.058°2025-07-05 15:20:06.483Z354.029° N
|